Weather in Genoa

Italy     44°24′27″N   8°56′58″E
temp.,
°C
wind,
m/s
gust,
m/s
humid.,
%
clouds,
%
prec.,
mm/h
press.,
hPa
HPBL,
m
13 april, tue
tue1323:00+6n469587 0.1 1016204
02:00+4n479010 0.1 1017154
05:00+2n468641 0.0 1018126
08:00+2n47811 0.0 1019216
11:00+8nnw46521 0.0 1020789
14:00+11nw45494 0.0 10191503
17:00+11nnw34490 0.0 10191218
20:00+5n11781 0.0 102118
14 april, wed
wed1423:00+4nne22801 0.0 102424
02:00+3nne22771 0.0 102431
05:00+2nne22800 0.0 102338
08:00+3n22786 0.0 102485
11:00+9w115724 0.0 10231174
14:00+9sw126892 0.3 1022940
17:00+7s117872 0.6 1021573
20:00+6w008854 0.8 102110
15 april, thu
thu1523:00+4n228912 0.1 102231
02:00+3n229210 0.1 102243
05:00+2n349435 0.0 102177
08:00+3n349157 0.0 1021189
11:00+8nw226927 0.2 1021766
14:00+10nw125958 1.0 10201370
17:00+9n025985 0.4 10191130
20:00+6nnw11795 0.4 101911
16 april, fri
fri1623:00+3n23895 0.0 102147
02:00+3nne2388100 0.0 102052
05:00+2n339074 0.0 101965
08:00+4n358773 0.0 1019212
11:00+8nnw336528 0.0 1019817
14:00+10nnw336389 0.4 10171097
17:00+10nnw346389 0.5 10161019
20:00+6n227912 0.6 101734
17 april, sat
sat1723:00+3n34852 0.0 101871
02:00+2n35871 0.0 101898
05:00+2n46872 0.0 1017110
08:00+4n36792 0.0 1017178
11:00+11nnw35487 0.0 10161492
14:00+14n243654 0.0 10142455
17:00+13ene233989 0.0 10132123
20:00+7nne21690 0.0 101419